Lincoln, IL

12:54 PM CDT on October 19, 2019 (GMT -0500)
Lincoln

Weather History for KAAA - August, 2019

Change the Weather History Date:

Wednesday, August 14, 2019

  Actual Average (KSPI) Record (KSPI)
Temperature  
Mean Temperature 76 °F 75 °F  
Max Temperature 84 °F 85 °F 98 °F (1936)
Min Temperature 68 °F 64 °F 48 °F (2013)
Degree Days  
Heating Degree Days 0 0  
Month to date heating degree days 0  
Since 1 June heating degree days 16  
Since 1 July heating degree days 1  
Cooling Degree Days 11 10  
Month to date cooling degree days 140  
Year to date cooling degree days 819  
Since 1 June cooling degree days 715  
Growing Degree Days 26 (Base 50)    
Moisture  
Dew Point 66 °F    
Average Humidity 73    
Maximum Humidity 95    
Minimum Humidity 48    
Precipitation  
Precipitation 0.00 in 0.10 in 1.70 in (1891)
Month to date precipitation 1.51  
Year to date precipitation 23.92  
Snow  
Snow 0.00 in 0.00 in 0.00 in ()
Month to date snowfall 0.0  
Since 1 June snowfall 0.0  
Since 1 July snowfall 0.0  
Snow Depth -    
Sea Level Pressure  
Sea Level Pressure 29.97 in    
Wind  
Wind Speed 2 mph (WNW)    
Max Wind Speed 8 mph    
Max Gust Speed -    
Visibility 10 miles    
Events      
T = Trace of Precipitation, MM = Missing Value Source: NWS Daily Summary

Daily Weather History Graph

Daily Weather History Graph

Search for Another Location

Airport or City:

Astronomy

Aug. 14, 2019 Rise Set
Actual Time 6:07 AM CDT 7:55 PM CDT
Civil Twilight 5:38 AM CDT 8:25 PM CDT
Nautical Twilight 5:02 AM CDT 9:00 PM CDT
Astronomical Twilight 4:24 AM CDT 9:38 PM CDT
Moon 7:49 PM CDT (8/14) 5:04 AM CDT (8/14)
Length of Visible Light 14h 46m
Length of Day
13h 48m
Waxing Gibbous, 99% of the Moon is Illuminated
Aug 14
Waxing Gibbous
Aug 15
Full
Aug 23
Last Quarter
Aug 30
New
Sep 5
First Quarter

Hourly Weather History & Observations

Time (CDT) Temp. Heat Index Dew Point Humidity Pressure Visibility Wind Dir Wind Speed Gust Speed Precip Events Conditions
12:15 AM 73.6 °F - 69.4 °F 87% 29.95 in 10.0 mi Calm Calm - N/A   Clear
12:35 AM 73.4 °F - 69.4 °F 87% 29.95 in 10.0 mi Calm Calm - N/A   Clear
12:55 AM 73.2 °F - 69.1 °F 87% 29.95 in 10.0 mi Calm Calm - N/A   Clear
1:15 AM 72.9 °F - 69.1 °F 88% 29.95 in 10.0 mi Calm Calm - N/A   Clear
1:35 AM 72.9 °F - 69.1 °F 88% 29.95 in 10.0 mi Calm Calm - N/A   Clear
1:55 AM 72.5 °F - 68.9 °F 88% 29.95 in 10.0 mi Calm Calm - N/A   Clear
2:15 AM 72.5 °F - 69.1 °F 89% 29.95 in 10.0 mi Calm Calm - N/A   Clear
2:35 AM 71.8 °F - 68.9 °F 91% 29.95 in 10.0 mi Calm Calm - N/A   Clear
2:55 AM 71.6 °F - 68.5 °F 90% 29.95 in 10.0 mi Calm Calm - N/A   Clear
3:15 AM 71.2 °F - 68.5 °F 91% 29.95 in 10.0 mi Calm Calm - N/A   Clear
3:35 AM 70.2 °F - 67.8 °F 92% 29.94 in 10.0 mi Calm Calm - N/A   Clear
3:55 AM 69.3 °F - 67.3 °F 93% 29.95 in 10.0 mi Calm Calm - N/A   Clear
4:15 AM 69.4 °F - 68.0 °F 95% 29.95 in 10.0 mi Calm Calm - N/A   Clear
4:35 AM 69.8 °F - 68.0 °F 94% 29.95 in 10.0 mi Calm Calm - N/A   Clear
4:55 AM 69.8 °F - 67.5 °F 92% 29.95 in 10.0 mi Calm Calm - N/A   Clear
5:15 AM 69.3 °F - 67.3 °F 93% 29.95 in 10.0 mi Calm Calm - N/A   Clear
5:35 AM 69.3 °F - 67.1 °F 93% 29.95 in 10.0 mi Calm Calm - N/A   Clear
5:55 AM 69.1 °F - 66.6 °F 92% 29.96 in 10.0 mi Calm Calm - N/A   Clear
6:15 AM 68.9 °F - 66.4 °F 92% 29.96 in 10.0 mi Calm Calm - N/A   Clear
6:35 AM 68.9 °F - 66.4 °F 92% 29.96 in 10.0 mi Calm Calm - N/A   Clear
6:55 AM 70.0 °F - 66.6 °F 89% 29.96 in 10.0 mi West 3.5 mph - N/A   Clear
7:15 AM 70.7 °F - 66.7 °F 87% 29.97 in 10.0 mi West 4.6 mph - N/A   Clear
7:35 AM 71.1 °F - 66.7 °F 86% 29.97 in 10.0 mi West 4.6 mph - N/A   Clear
7:55 AM 72.0 °F - 67.3 °F 85% 29.97 in 10.0 mi West 5.8 mph - N/A   Clear
8:15 AM 72.3 °F - 67.6 °F 85% 29.97 in 10.0 mi NW 4.6 mph - N/A   Clear
8:35 AM 72.7 °F - 67.8 °F 85% 29.97 in 10.0 mi NW 5.8 mph - N/A   Clear
8:55 AM 73.6 °F - 68.0 °F 83% 29.98 in 10.0 mi WNW 3.5 mph - N/A   Clear
9:15 AM 75.6 °F - 68.4 °F 78% 29.98 in 10.0 mi NW 4.6 mph - N/A   Clear
9:35 AM 77.2 °F - 68.4 °F 74% 29.98 in 10.0 mi NW 4.6 mph - N/A   Clear
9:55 AM 77.9 °F - 68.2 °F 72% 29.98 in 10.0 mi NW 3.5 mph - N/A   Clear
10:15 AM 77.4 °F - 67.8 °F 72% 29.99 in 10.0 mi NW 5.8 mph - N/A   Clear
10:35 AM 78.3 °F - 67.6 °F 70% 29.99 in 10.0 mi NW 5.8 mph - N/A   Clear
10:55 AM 79.0 °F - 67.6 °F 68% 29.99 in 10.0 mi West 3.5 mph - N/A   Clear
11:35 AM 81.3 °F 83.5 °F 66.4 °F 60% 29.99 in 10.0 mi WNW 6.9 mph - N/A   Clear
11:55 AM 81.7 °F 83.6 °F 65.5 °F 58% 29.99 in 10.0 mi West 5.8 mph - N/A   Scattered Clouds
12:15 PM 80.8 °F 82.4 °F 64.4 °F 57% 29.99 in 10.0 mi NW 5.8 mph - N/A   Mostly Cloudy
12:35 PM 82.6 °F 84.5 °F 65.5 °F 56% 29.99 in 10.0 mi WNW 5.8 mph - N/A   Mostly Cloudy
12:55 PM 81.5 °F 82.9 °F 63.9 °F 55% 29.98 in 10.0 mi NW 5.8 mph - N/A   Scattered Clouds
1:15 PM 82.8 °F 83.8 °F 63.1 °F 51% 29.98 in 10.0 mi West 6.9 mph - N/A   Scattered Clouds
1:35 PM 83.8 °F 84.9 °F 63.1 °F 50% 29.97 in 10.0 mi NW 8.1 mph - N/A   Scattered Clouds
1:55 PM 83.8 °F 84.9 °F 63.3 °F 50% 29.97 in 10.0 mi West 6.9 mph - N/A   Mostly Cloudy
2:15 PM 82.4 °F 83.7 °F 63.9 °F 53% 29.97 in 10.0 mi NNW 6.9 mph - N/A   Mostly Cloudy
2:35 PM 82.6 °F 83.9 °F 63.9 °F 53% 29.97 in 10.0 mi NW 5.8 mph - N/A   Mostly Cloudy
2:55 PM 83.3 °F 84.8 °F 64.8 °F 53% 29.97 in 10.0 mi NNW 5.8 mph - N/A   Overcast
3:15 PM 81.5 °F 82.9 °F 63.7 °F 55% 29.97 in 10.0 mi West 6.9 mph - N/A   Mostly Cloudy
3:35 PM 80.6 °F 81.9 °F 63.1 °F 55% 29.97 in 10.0 mi NW 3.5 mph - N/A   Scattered Clouds
3:55 PM 83.3 °F 84.3 °F 63.0 °F 50% 29.96 in 10.0 mi West 6.9 mph - N/A   Scattered Clouds
4:15 PM 84.4 °F 85.2 °F 63.0 °F 48% 29.96 in 10.0 mi WNW 5.8 mph - N/A   Scattered Clouds
4:35 PM 83.3 °F 84.3 °F 62.6 °F 50% 29.96 in 10.0 mi WNW 4.6 mph - N/A   Scattered Clouds
4:55 PM 82.8 °F 83.3 °F 61.2 °F 48% 29.96 in 10.0 mi WNW 4.6 mph - N/A   Clear
5:15 PM 82.6 °F 83.2 °F 61.9 °F 49% 29.95 in 10.0 mi WNW 8.1 mph - N/A   Clear
5:35 PM 82.6 °F 83.6 °F 62.6 °F 51% 29.95 in 10.0 mi WNW 6.9 mph - N/A   Clear
5:55 PM 81.7 °F 82.7 °F 62.6 °F 52% 29.95 in 10.0 mi WNW 5.8 mph - N/A   Clear
6:15 PM 81.3 °F 82.6 °F 63.0 °F 54% 29.95 in 10.0 mi WNW 6.9 mph - N/A   Clear
6:35 PM 80.8 °F 82.0 °F 63.0 °F 54% 29.95 in 10.0 mi Calm Calm - N/A   Scattered Clouds
6:55 PM 80.6 °F 82.2 °F 64.2 °F 57% 29.94 in 10.0 mi NW 5.8 mph - N/A   Mostly Cloudy
7:15 PM 77.9 °F - 63.7 °F 61% 29.95 in 10.0 mi NW 3.5 mph - N/A   Scattered Clouds
7:35 PM 77.0 °F - 64.4 °F 65% 29.96 in 10.0 mi West 3.5 mph - N/A   Scattered Clouds
7:55 PM 75.9 °F - 64.4 °F 67% 29.97 in 10.0 mi WNW 3.5 mph - N/A   Clear
8:15 PM 74.7 °F - 63.7 °F 69% 29.96 in 10.0 mi Calm Calm - N/A   Scattered Clouds
8:35 PM 73.6 °F - 64.0 °F 72% 29.97 in 10.0 mi Calm Calm - N/A   Clear
8:55 PM 72.7 °F - 63.9 °F 74% 29.98 in 10.0 mi Calm Calm - N/A   Clear
9:15 PM 72.7 °F - 63.7 °F 73% 29.99 in 10.0 mi WNW 3.5 mph - N/A   Mostly Cloudy
9:35 PM 72.3 °F - 63.5 °F 74% 30.00 in 10.0 mi Calm Calm - N/A   Overcast
9:55 PM 71.6 °F - 63.5 °F 76% 30.00 in 10.0 mi Calm Calm - N/A   Overcast
10:15 PM 71.4 °F - 63.1 °F 75% 30.01 in 10.0 mi Calm Calm - N/A   Mostly Cloudy
10:35 PM 70.2 °F - 63.1 °F 78% 30.01 in 10.0 mi Calm Calm - N/A   Scattered Clouds
10:55 PM 69.1 °F - 63.3 °F 82% 30.01 in 10.0 mi NW 3.5 mph - N/A   Clear
11:15 PM 68.9 °F - 63.0 °F 81% 30.02 in 10.0 mi WNW 4.6 mph - N/A   Clear
11:35 PM 68.7 °F - 63.0 °F 82% 30.01 in 10.0 mi Calm Calm - N/A   Clear
11:50 PM 68.4 °F - 63.0 °F 83% 30.01 in 10.0 mi Calm Calm - N/A   Clear